sat.trackr.live / text

‹ back to catalog

STARLINK-31660

NORAD 59642 · 2024-082M

PAYLOAD ACTIVE UNKNOWN

§ Identity

Operator
Country
US
Launch date
2024-05-03
Launch site
AFETR
Launch vehicle
Mass (kg)
RCS (m²)

Purposes: comms

External: N2YO · Heavens-Above · Gunter

§ Orbital elements

Epoch: 2026-05-25T02:00:43.742304Z

Period
94.27 min
Inclination
43.0020°
Eccentricity
0.0001405
Mean motion
15.27578817 rev/d
Perigee alt
482.1 km
Apogee alt
484.0 km
Semi-major
6,861.2 km
B*
-2.5729e-6
RAAN
28.0002°
Arg perigee
271.9168°
Mean anomaly
88.1522°
Rev number
11,715

§ Raw data

STARLINK-316601 59642U 24082M   26145.08383961 -.00000333  00000+0 -25729-5 0  99982 59642  43.0020  28.0002 0001405 271.9168  88.1522 15.27578817117155

JSON: /api/v1/satellites/59642 · /tle

For live sub-satellite position, see the globe view (requires WebGL).

§ Visibility from observer

Set your observer location to see the next 7 days of passes ≥ 10°. The values pass through the URL so the page stays shareable.

No JS? Fill the form by hand. The geolocation button needs JavaScript.